sat.trackr.live / text

‹ back to catalog

GEESAT-2 03

NORAD 58907 · 2024-023C

PAYLOAD ACTIVE UNKNOWN

§ Identity

Operator
Country
PRC
Launch date
2024-02-02
Launch site
XICLF
Launch vehicle
Mass (kg)
RCS (m²)

External: N2YO · Heavens-Above · Gunter

§ Orbital elements

Epoch: 2026-09-22T21:18:02.605824Z

Period
96.17 min
Inclination
50.0013°
Eccentricity
0.0006023
Mean motion
14.97417516 rev/d
Perigee alt
570.7 km
Apogee alt
579.1 km
Semi-major
6,953.0 km
B*
1.2925e-4
RAAN
221.7854°
Arg perigee
55.2530°
Mean anomaly
304.8980°
Rev number
14,396

§ Raw data

GEESAT-2 031 58907U 24023C   26265.88753016  .00001264  00000+0  12925-3 0  99932 58907  50.0013 221.7854 0006023  55.2530 304.8980 14.97417516143960

JSON: /api/v1/satellites/58907 · /tle

For live sub-satellite position, see the globe view (requires WebGL).

§ Visibility from observer

Set your observer location to see the next 7 days of passes ≥ 10°. The values pass through the URL so the page stays shareable.

No JS? Fill the form by hand. The geolocation button needs JavaScript.